Year,Month,Day,Hour,Minute,Value (Times are PST for temperature in C)
2007,08,23,00,00,14.40
2007,08,23,00,01,14.30
2007,08,23,00,02,14.30
2007,08,23,00,03,14.30
2007,08,23,00,04,14.30
2007,08,23,00,05,14.20
2007,08,23,00,06,14.20
2007,08,23,00,07,14.20
2007,08,23,00,08,14.10
2007,08,23,00,09,14.10
2007,08,23,00,10,14.10
2007,08,23,00,11,14.10
2007,08,23,00,12,14.10
2007,08,23,00,13,14.10
2007,08,23,00,14,14.10
2007,08,23,00,15,14.20
2007,08,23,00,16,14.20
2007,08,23,00,17,14.20
2007,08,23,00,18,14.20
2007,08,23,00,19,14.20
2007,08,23,00,20,14.20
2007,08,23,00,21,14.20
2007,08,23,00,22,14.20
2007,08,23,00,23,14.20
2007,08,23,00,24,14.10
2007,08,23,00,25,14.10
2007,08,23,00,26,14.10
2007,08,23,00,27,14.10
2007,08,23,00,28,14.10
2007,08,23,00,29,14.10
2007,08,23,00,30,14.10
2007,08,23,00,31,14.10
2007,08,23,00,32,14.10
2007,08,23,00,33,14.10
2007,08,23,00,34,14.10
2007,08,23,00,35,14.10
2007,08,23,00,36,14.10
2007,08,23,00,37,14.10
2007,08,23,00,38,14.10
2007,08,23,00,39,14.10
2007,08,23,00,40,14.20
2007,08,23,00,41,14.20
2007,08,23,00,42,14.20
2007,08,23,00,43,14.20
2007,08,23,00,44,14.20
2007,08,23,00,45,14.20
2007,08,23,00,46,14.30
2007,08,23,00,47,14.30
2007,08,23,00,48,14.30
2007,08,23,00,49,14.30
2007,08,23,00,50,14.40
2007,08,23,00,51,14.40
2007,08,23,00,52,14.40
2007,08,23,00,53,14.40
2007,08,23,00,54,14.40
2007,08,23,00,55,14.40
2007,08,23,00,56,14.40
2007,08,23,00,57,14.40
2007,08,23,00,58,14.50
2007,08,23,00,59,14.50
2007,08,23,01,00,14.60
2007,08,23,01,01,14.60
2007,08,23,01,02,14.60
2007,08,23,01,03,14.60
2007,08,23,01,04,14.60
2007,08,23,01,05,14.60
2007,08,23,01,06,14.50
2007,08,23,01,07,14.50
2007,08,23,01,08,14.50
2007,08,23,01,09,14.50
2007,08,23,01,10,14.50
2007,08,23,01,11,14.50
2007,08,23,01,12,14.50
2007,08,23,01,13,14.50
2007,08,23,01,14,14.50
2007,08,23,01,15,14.50
2007,08,23,01,16,14.50
2007,08,23,01,17,14.50
2007,08,23,01,18,14.40
2007,08,23,01,19,14.40
2007,08,23,01,20,14.40
2007,08,23,01,21,14.40
2007,08,23,01,22,14.40
2007,08,23,01,23,14.40
2007,08,23,01,24,14.40
2007,08,23,01,25,14.40
2007,08,23,01,26,14.40
2007,08,23,01,27,14.40
2007,08,23,01,28,14.40
2007,08,23,01,29,14.30
2007,08,23,01,30,14.30
2007,08,23,01,31,14.30
2007,08,23,01,32,14.30
2007,08,23,01,33,14.30
2007,08,23,01,34,14.30
2007,08,23,01,35,14.30
2007,08,23,01,36,14.40
2007,08,23,01,37,14.40
2007,08,23,01,38,14.40
2007,08,23,01,39,14.40
2007,08,23,01,40,14.40
2007,08,23,01,41,14.40
2007,08,23,01,42,14.40
2007,08,23,01,43,14.40
2007,08,23,01,44,14.50
2007,08,23,01,45,14.50
2007,08,23,01,46,14.50
2007,08,23,01,47,14.50
2007,08,23,01,48,14.60
2007,08,23,01,49,14.60
2007,08,23,01,50,14.60
2007,08,23,01,51,14.60
2007,08,23,01,52,14.60
2007,08,23,01,53,14.60
2007,08,23,01,54,14.60
2007,08,23,01,55,14.60
2007,08,23,01,56,14.70
2007,08,23,01,57,14.70
2007,08,23,01,58,14.70
2007,08,23,01,59,14.70
2007,08,23,02,00,14.70
2007,08,23,02,01,14.70
2007,08,23,02,02,14.70
2007,08,23,02,03,14.70
2007,08,23,02,04,14.70
2007,08,23,02,05,14.70
2007,08,23,02,06,14.70
2007,08,23,02,07,14.70
2007,08,23,02,08,14.70
2007,08,23,02,09,14.70
2007,08,23,02,10,14.70
2007,08,23,02,11,14.70
2007,08,23,02,12,14.70
2007,08,23,02,13,14.70
2007,08,23,02,14,14.70
2007,08,23,02,15,14.70
2007,08,23,02,16,14.70
2007,08,23,02,17,14.70
2007,08,23,02,18,14.70
2007,08,23,02,19,14.70
2007,08,23,02,20,14.70
2007,08,23,02,21,14.70
2007,08,23,02,22,14.70
2007,08,23,02,23,14.70
2007,08,23,02,24,14.60
2007,08,23,02,25,14.60
2007,08,23,02,26,14.60
2007,08,23,02,27,14.60
2007,08,23,02,28,14.60
2007,08,23,02,29,14.60
2007,08,23,02,30,14.60
2007,08,23,02,31,14.60
2007,08,23,02,32,14.50
2007,08,23,02,33,14.50
2007,08,23,02,34,14.60
2007,08,23,02,35,14.60
2007,08,23,02,36,14.60
2007,08,23,02,37,14.60
2007,08,23,02,38,14.60
2007,08,23,02,39,14.60
2007,08,23,02,40,14.60
2007,08,23,02,41,14.60
2007,08,23,02,42,14.60
2007,08,23,02,43,14.60
2007,08,23,02,44,14.60
2007,08,23,02,45,14.60
2007,08,23,02,46,14.60
2007,08,23,02,47,14.70
2007,08,23,02,48,14.70
2007,08,23,02,49,14.70
2007,08,23,02,50,14.70
2007,08,23,02,51,14.70
2007,08,23,02,52,14.70
2007,08,23,02,53,14.70
2007,08,23,02,54,14.70
2007,08,23,02,55,14.70
2007,08,23,02,56,14.70
2007,08,23,02,57,14.70
2007,08,23,02,58,14.70
2007,08,23,02,59,14.70
2007,08,23,03,00,14.70
2007,08,23,03,01,14.70
2007,08,23,03,02,14.70
2007,08,23,03,03,14.70
2007,08,23,03,04,14.70
2007,08,23,03,05,14.70
2007,08,23,03,06,14.70
2007,08,23,03,07,14.70
2007,08,23,03,08,14.70
2007,08,23,03,09,14.70
2007,08,23,03,10,14.70
2007,08,23,03,11,14.70
2007,08,23,03,12,14.70
2007,08,23,03,13,14.70
2007,08,23,03,14,14.70
2007,08,23,03,15,14.60
2007,08,23,03,16,14.60
2007,08,23,03,17,14.60
2007,08,23,03,18,14.60
2007,08,23,03,19,14.60
2007,08,23,03,20,14.60
2007,08,23,03,21,14.60
2007,08,23,03,22,14.60
2007,08,23,03,23,14.60
2007,08,23,03,24,14.60
2007,08,23,03,25,14.60
2007,08,23,03,26,14.60
2007,08,23,03,27,14.60
2007,08,23,03,28,14.50
2007,08,23,03,29,14.50
2007,08,23,03,30,14.50
2007,08,23,03,31,14.50
2007,08,23,03,32,14.50
2007,08,23,03,33,14.40
2007,08,23,03,34,14.40
2007,08,23,03,35,14.40
2007,08,23,03,36,14.40
2007,08,23,03,37,14.40
2007,08,23,03,38,14.40
2007,08,23,03,39,14.40
2007,08,23,03,40,14.40
2007,08,23,03,41,14.40
2007,08,23,03,42,14.40
2007,08,23,03,43,14.40
2007,08,23,03,44,14.30
2007,08,23,03,45,14.30
2007,08,23,03,46,14.30
2007,08,23,03,47,14.30
2007,08,23,03,48,14.30
2007,08,23,03,49,14.30
2007,08,23,03,50,14.30
2007,08,23,03,51,14.30
2007,08,23,03,52,14.30
2007,08,23,03,53,14.30
2007,08,23,03,54,14.30
2007,08,23,03,55,14.30
2007,08,23,03,56,14.30
2007,08,23,03,57,14.30
2007,08,23,03,58,14.30
2007,08,23,03,59,14.30
2007,08,23,04,00,14.30
2007,08,23,04,01,14.20
2007,08,23,04,02,14.20
2007,08,23,04,03,14.20
2007,08,23,04,04,14.20
2007,08,23,04,05,14.20
2007,08,23,04,06,14.20
2007,08,23,04,07,14.20
2007,08,23,04,08,14.10
2007,08,23,04,09,14.10
2007,08,23,04,10,14.10
2007,08,23,04,11,14.10
2007,08,23,04,12,14.10
2007,08,23,04,13,14.10
2007,08,23,04,14,14.00
2007,08,23,04,15,14.00
2007,08,23,04,16,14.00
2007,08,23,04,17,14.00
2007,08,23,04,18,13.90
2007,08,23,04,19,13.90
2007,08,23,04,20,13.90
2007,08,23,04,21,13.90
2007,08,23,04,22,13.90
2007,08,23,04,23,13.90
2007,08,23,04,24,13.80
2007,08,23,04,25,13.80
2007,08,23,04,26,13.80
2007,08,23,04,27,13.80
2007,08,23,04,28,13.80
2007,08,23,04,29,13.80
2007,08,23,04,30,13.80
2007,08,23,04,31,13.80
2007,08,23,04,32,13.80
2007,08,23,04,33,13.80
2007,08,23,04,34,13.80
2007,08,23,04,35,13.80
2007,08,23,04,36,13.80
2007,08,23,04,37,13.80
2007,08,23,04,38,13.80
2007,08,23,04,39,13.80
2007,08,23,04,40,13.80
2007,08,23,04,41,13.80
2007,08,23,04,42,13.80
2007,08,23,04,43,13.80
2007,08,23,04,44,13.80
2007,08,23,04,45,13.80
2007,08,23,04,46,13.80
2007,08,23,04,47,13.80
2007,08,23,04,48,13.80
2007,08,23,04,49,13.80
2007,08,23,04,50,13.80
2007,08,23,04,51,13.80
2007,08,23,04,52,13.80
2007,08,23,04,53,13.80
2007,08,23,04,54,13.80
2007,08,23,04,55,13.80
2007,08,23,04,56,13.80
2007,08,23,04,57,13.80
2007,08,23,04,58,13.80
2007,08,23,04,59,13.80
2007,08,23,05,00,13.70
2007,08,23,05,01,13.70
2007,08,23,05,02,13.70
2007,08,23,05,03,13.70
2007,08,23,05,04,13.70
2007,08,23,05,05,13.70
2007,08,23,05,06,13.70
2007,08,23,05,07,13.70
2007,08,23,05,08,13.60
2007,08,23,05,09,13.60
2007,08,23,05,10,13.60
2007,08,23,05,11,13.60
2007,08,23,05,12,13.60
2007,08,23,05,13,13.50
2007,08,23,05,14,13.50
2007,08,23,05,15,13.50
2007,08,23,05,16,13.50
2007,08,23,05,17,13.50
2007,08,23,05,18,13.40
2007,08,23,05,19,13.40
2007,08,23,05,20,13.40
2007,08,23,05,21,13.40
2007,08,23,05,22,13.40
2007,08,23,05,23,13.30
2007,08,23,05,24,13.30
2007,08,23,05,25,13.30
2007,08,23,05,26,13.30
2007,08,23,05,27,13.20
2007,08,23,05,28,13.20
2007,08,23,05,29,13.20
2007,08,23,05,30,13.20
2007,08,23,05,31,13.10
2007,08,23,05,32,13.10
2007,08,23,05,33,13.10
2007,08,23,05,34,13.00
2007,08,23,05,35,13.00
2007,08,23,05,36,12.90
2007,08,23,05,37,12.90
2007,08,23,05,38,12.90
2007,08,23,05,39,12.90
2007,08,23,05,40,12.80
2007,08,23,05,41,12.80
2007,08,23,05,42,12.80
2007,08,23,05,43,12.80
2007,08,23,05,44,12.80
2007,08,23,05,45,12.80
2007,08,23,05,46,12.80
2007,08,23,05,47,12.80
2007,08,23,05,48,12.70
2007,08,23,05,49,12.70
2007,08,23,05,50,12.70
2007,08,23,05,51,12.70
2007,08,23,05,52,12.70
2007,08,23,05,53,12.60
2007,08,23,05,54,12.60
2007,08,23,05,55,12.60
2007,08,23,05,56,12.60
2007,08,23,05,57,12.60
2007,08,23,05,58,12.60
2007,08,23,05,59,12.60
2007,08,23,06,00,12.50
2007,08,23,06,01,12.50
2007,08,23,06,02,12.40
2007,08,23,06,03,12.40
2007,08,23,06,04,12.40
2007,08,23,06,05,12.40
2007,08,23,06,06,12.40
2007,08,23,06,07,12.40
2007,08,23,06,08,12.40
2007,08,23,06,09,12.40
2007,08,23,06,10,12.40
2007,08,23,06,11,12.40
2007,08,23,06,12,12.40
2007,08,23,06,13,12.40
2007,08,23,06,14,12.40
2007,08,23,06,15,12.50
2007,08,23,06,16,12.50
2007,08,23,06,17,12.50
2007,08,23,06,18,12.60
2007,08,23,06,19,12.60
2007,08,23,06,20,12.60
2007,08,23,06,21,12.60
2007,08,23,06,22,12.60
2007,08,23,06,23,12.60
2007,08,23,06,24,12.60
2007,08,23,06,25,12.70
2007,08,23,06,26,12.70
2007,08,23,06,27,12.70
2007,08,23,06,28,12.70
2007,08,23,06,29,12.70
2007,08,23,06,30,12.70
2007,08,23,06,31,12.80
2007,08,23,06,32,12.80
2007,08,23,06,33,12.80
2007,08,23,06,34,12.80
2007,08,23,06,35,12.80
2007,08,23,06,36,12.80
2007,08,23,06,37,12.80
2007,08,23,06,38,12.80
2007,08,23,06,39,12.90
2007,08,23,06,40,12.90
2007,08,23,06,41,12.90
2007,08,23,06,42,12.90
2007,08,23,06,43,13.00
2007,08,23,06,44,13.00
2007,08,23,06,45,13.00
2007,08,23,06,46,13.10
2007,08,23,06,47,13.10
2007,08,23,06,48,13.10
2007,08,23,06,49,13.10
2007,08,23,06,50,13.20
2007,08,23,06,51,13.20
2007,08,23,06,52,13.20
2007,08,23,06,53,13.20
2007,08,23,06,54,13.20
2007,08,23,06,55,13.20
2007,08,23,06,56,13.20
2007,08,23,06,57,13.20
2007,08,23,06,58,13.30
2007,08,23,06,59,13.30
2007,08,23,07,00,13.30
2007,08,23,07,01,13.30
2007,08,23,07,02,13.30
2007,08,23,07,03,13.30
2007,08,23,07,04,13.40
2007,08,23,07,05,13.40
2007,08,23,07,06,13.40
2007,08,23,07,07,13.40
2007,08,23,07,08,13.40
2007,08,23,07,09,13.50
2007,08,23,07,10,13.50
2007,08,23,07,11,13.50
2007,08,23,07,12,13.50
2007,08,23,07,13,13.50
2007,08,23,07,14,13.60
2007,08,23,07,15,13.60
2007,08,23,07,16,13.60
2007,08,23,07,17,13.60
2007,08,23,07,18,13.60
2007,08,23,07,19,13.60
2007,08,23,07,20,13.60
2007,08,23,07,21,13.60
2007,08,23,07,22,13.60
2007,08,23,07,23,13.60
2007,08,23,07,24,13.60
2007,08,23,07,25,13.70
2007,08,23,07,26,13.70
2007,08,23,07,27,13.70
2007,08,23,07,28,13.70
2007,08,23,07,29,13.70
2007,08,23,07,30,13.70
2007,08,23,07,31,13.70
2007,08,23,07,32,13.70
2007,08,23,07,33,13.70
2007,08,23,07,34,13.70
2007,08,23,07,35,13.70
2007,08,23,07,36,13.70
2007,08,23,07,37,13.70
2007,08,23,07,38,13.70
2007,08,23,07,39,13.70
2007,08,23,07,40,13.80
2007,08,23,07,41,13.80
2007,08,23,07,42,13.80
2007,08,23,07,43,13.90
2007,08,23,07,44,13.90
2007,08,23,07,45,13.90
2007,08,23,07,46,13.90
2007,08,23,07,47,13.90
2007,08,23,07,48,14.00
2007,08,23,07,49,14.00
2007,08,23,07,50,14.00
2007,08,23,07,51,14.00
2007,08,23,07,52,14.10
2007,08,23,07,53,14.10
2007,08,23,07,54,14.10
2007,08,23,07,55,14.20
2007,08,23,07,56,14.20
2007,08,23,07,57,14.30
2007,08,23,07,58,14.30
2007,08,23,07,59,14.30
2007,08,23,08,00,14.40
2007,08,23,08,01,14.50
2007,08,23,08,02,14.60
2007,08,23,08,03,14.60
2007,08,23,08,04,14.60
2007,08,23,08,05,14.60
2007,08,23,08,06,14.70
2007,08,23,08,07,14.70
2007,08,23,08,08,14.70
2007,08,23,08,09,14.70
2007,08,23,08,10,14.80
2007,08,23,08,11,14.80
2007,08,23,08,12,14.90
2007,08,23,08,13,15.00
2007,08,23,08,14,15.00
2007,08,23,08,15,15.00
2007,08,23,08,16,15.00
2007,08,23,08,17,15.10
2007,08,23,08,18,15.30
2007,08,23,08,19,15.30
2007,08,23,08,20,15.40
2007,08,23,08,21,15.50
2007,08,23,08,22,15.50
2007,08,23,08,23,15.60
2007,08,23,08,24,15.60
2007,08,23,08,25,15.70
2007,08,23,08,26,15.70
2007,08,23,08,27,15.70
2007,08,23,08,28,15.70
2007,08,23,08,29,15.80
2007,08,23,08,30,15.80
2007,08,23,08,31,15.80
2007,08,23,08,32,15.80
2007,08,23,08,33,15.80
2007,08,23,08,34,15.80
2007,08,23,08,35,15.80
2007,08,23,08,36,15.90
2007,08,23,08,37,15.90
2007,08,23,08,38,15.90
2007,08,23,08,39,16.00
2007,08,23,08,40,16.00
2007,08,23,08,41,16.00
2007,08,23,08,42,16.10
2007,08,23,08,43,16.10
2007,08,23,08,44,16.20
2007,08,23,08,45,16.20
2007,08,23,08,46,16.30
2007,08,23,08,47,16.30
2007,08,23,08,48,16.30
2007,08,23,08,49,16.30
2007,08,23,08,50,16.40
2007,08,23,08,51,16.40
2007,08,23,08,52,16.40
2007,08,23,08,53,16.40
2007,08,23,08,54,16.50
2007,08,23,08,55,16.50
2007,08,23,08,56,16.60
2007,08,23,08,57,16.60
2007,08,23,08,58,16.60
2007,08,23,08,59,16.70
2007,08,23,09,00,16.70
2007,08,23,09,01,16.70
2007,08,23,09,02,16.80
2007,08,23,09,03,16.90
2007,08,23,09,04,16.90
2007,08,23,09,05,17.00
2007,08,23,09,06,17.10
2007,08,23,09,07,17.10
2007,08,23,09,08,17.20
2007,08,23,09,09,17.20
2007,08,23,09,10,17.30
2007,08,23,09,11,17.30
2007,08,23,09,12,17.30
2007,08,23,09,13,17.40
2007,08,23,09,14,17.40
2007,08,23,09,15,17.50
2007,08,23,09,16,17.50
2007,08,23,09,17,17.60
2007,08,23,09,18,17.60
2007,08,23,09,19,17.70
2007,08,23,09,20,17.70
2007,08,23,09,21,17.70
2007,08,23,09,22,17.80
2007,08,23,09,23,17.80
2007,08,23,09,24,17.80
2007,08,23,09,25,17.90
2007,08,23,09,26,17.90
2007,08,23,09,27,18.00
2007,08,23,09,28,18.10
2007,08,23,09,29,18.20
2007,08,23,09,30,18.20
2007,08,23,09,31,18.30
2007,08,23,09,32,18.30
2007,08,23,09,33,18.30
2007,08,23,09,34,18.30
2007,08,23,09,35,18.30
2007,08,23,09,36,18.30
2007,08,23,09,37,18.30
2007,08,23,09,38,18.30
2007,08,23,09,39,18.30
2007,08,23,09,40,18.30
2007,08,23,09,41,18.40
2007,08,23,09,42,18.50
2007,08,23,09,43,18.50
2007,08,23,09,44,18.60
2007,08,23,09,45,18.70
2007,08,23,09,46,18.80
2007,08,23,09,47,18.80
2007,08,23,09,48,18.80
2007,08,23,09,49,18.80
2007,08,23,09,50,18.70
2007,08,23,09,51,18.80
2007,08,23,09,52,18.80
2007,08,23,09,53,18.70
2007,08,23,09,54,18.80
2007,08,23,09,55,18.80
2007,08,23,09,56,19.00
2007,08,23,09,57,19.10
2007,08,23,09,58,19.20
2007,08,23,09,59,19.20
2007,08,23,10,00,19.20
2007,08,23,10,01,19.20
2007,08,23,10,02,19.20
2007,08,23,10,03,19.20
2007,08,23,10,04,19.20
2007,08,23,10,05,19.20
2007,08,23,10,06,19.20
2007,08,23,10,07,19.10
2007,08,23,10,08,19.10
2007,08,23,10,09,19.10
2007,08,23,10,10,19.10
2007,08,23,10,11,19.10
2007,08,23,10,12,19.10
2007,08,23,10,13,19.10
2007,08,23,10,14,19.10
2007,08,23,10,15,19.10
2007,08,23,10,16,19.10
2007,08,23,10,17,19.10
2007,08,23,10,18,19.10
2007,08,23,10,19,19.10
2007,08,23,10,20,19.10
2007,08,23,10,21,19.10
2007,08,23,10,22,19.10
2007,08,23,10,23,19.00
2007,08,23,10,24,19.10
2007,08,23,10,25,19.10
2007,08,23,10,26,19.20
2007,08,23,10,27,19.20
2007,08,23,10,28,19.30
2007,08,23,10,29,19.30
2007,08,23,10,30,19.30
2007,08,23,10,31,19.30
2007,08,23,10,32,19.30
2007,08,23,10,33,19.30
2007,08,23,10,34,19.30
2007,08,23,10,35,19.40
2007,08,23,10,36,19.30
2007,08,23,10,37,19.30
2007,08,23,10,38,19.40
2007,08,23,10,39,19.50
2007,08,23,10,40,19.60
2007,08,23,10,41,19.70
2007,08,23,10,42,19.80
2007,08,23,10,43,19.80
2007,08,23,10,44,19.90
2007,08,23,10,45,19.90
2007,08,23,10,46,20.00
2007,08,23,10,47,20.00
2007,08,23,10,48,20.00
2007,08,23,10,49,19.90
2007,08,23,10,50,19.90
2007,08,23,10,51,19.90
2007,08,23,10,52,19.90
2007,08,23,10,53,19.80
2007,08,23,10,54,19.80
2007,08,23,10,55,19.80
2007,08,23,10,56,19.80
2007,08,23,10,57,19.80
2007,08,23,10,58,19.80
2007,08,23,10,59,19.90
2007,08,23,11,00,20.00
2007,08,23,11,01,20.00
2007,08,23,11,02,20.20
2007,08,23,11,03,20.30
2007,08,23,11,04,20.30
2007,08,23,11,05,20.30
2007,08,23,11,06,20.30
2007,08,23,11,07,20.30
2007,08,23,11,08,20.40
2007,08,23,11,09,20.40
2007,08,23,11,10,20.50
2007,08,23,11,11,20.50
2007,08,23,11,12,20.70
2007,08,23,11,13,20.70
2007,08,23,11,14,20.90
2007,08,23,11,15,21.10
2007,08,23,11,16,21.30
2007,08,23,11,17,21.40
2007,08,23,11,18,21.50
2007,08,23,11,19,21.70
2007,08,23,11,20,21.80
2007,08,23,11,21,21.90
2007,08,23,11,22,21.90
2007,08,23,11,23,21.90
2007,08,23,11,24,21.90
2007,08,23,11,25,22.00
2007,08,23,11,26,22.10
2007,08,23,11,27,22.10
2007,08,23,11,28,22.20
2007,08,23,11,29,22.10
2007,08,23,11,30,22.10
2007,08,23,11,31,22.20
2007,08,23,11,32,22.10
2007,08,23,11,33,22.10
2007,08,23,11,34,22.10
2007,08,23,11,35,22.00
2007,08,23,11,36,22.00
2007,08,23,11,37,22.00
2007,08,23,11,38,21.80
2007,08,23,11,39,21.80
2007,08,23,11,40,21.80
2007,08,23,11,41,21.80
2007,08,23,11,42,21.70
2007,08,23,11,43,21.60
2007,08,23,11,44,21.50
2007,08,23,11,45,21.50
2007,08,23,11,46,21.50
2007,08,23,11,47,21.60
2007,08,23,11,48,21.70
2007,08,23,11,49,21.80
2007,08,23,11,50,21.80
2007,08,23,11,51,21.70
2007,08,23,11,52,21.60
2007,08,23,11,53,21.50
2007,08,23,11,54,21.50
2007,08,23,11,55,21.50
2007,08,23,11,56,21.60
2007,08,23,11,57,21.70
2007,08,23,11,58,21.80
2007,08,23,11,59,21.90
2007,08,23,12,00,22.00
2007,08,23,12,01,22.00
2007,08,23,12,02,21.90
2007,08,23,12,03,21.80
2007,08,23,12,04,21.60
2007,08,23,12,05,21.40
2007,08,23,12,06,21.30
2007,08,23,12,07,21.40
2007,08,23,12,08,21.50
2007,08,23,12,09,21.60
2007,08,23,12,10,21.60
2007,08,23,12,11,21.60
2007,08,23,12,12,21.50
2007,08,23,12,13,21.50
2007,08,23,12,14,21.40
2007,08,23,12,15,21.30
2007,08,23,12,16,21.30
2007,08,23,12,17,21.30
2007,08,23,12,18,21.40
2007,08,23,12,19,21.50
2007,08,23,12,20,21.60
2007,08,23,12,21,21.60
2007,08,23,12,22,21.50
2007,08,23,12,23,21.40
2007,08,23,12,24,21.20
2007,08,23,12,25,21.20
2007,08,23,12,26,21.20
2007,08,23,12,27,21.40
2007,08,23,12,28,21.50
2007,08,23,12,29,21.70
2007,08,23,12,30,21.80
2007,08,23,12,31,21.90
2007,08,23,12,32,21.90
2007,08,23,12,33,21.80
2007,08,23,12,34,21.80
2007,08,23,12,35,21.80
2007,08,23,12,36,21.80
